When you browse on this site, cookies collect data to enhance your experience and personalize the content and advertising you see.
Visit our Privacy Policy to learn more. By continuing to use the site, you agree to this use of cookies and data.
  • In Czech Republic
  • List of Countries
  • For 7 days
  • Water Temperature
  • Weather Map
  • Weather Widgets
  • user-avatar
    Login

    Hourly Weather Lipnica

    Today, 7 June, Sunday

    Time Temperature Precipitation Wind Pressure Humidity
    00:00 +15°C° 0 mm 1 mps 745 mmHg 90%
    01:00 +13°C° 0 mm 0 mps 745 mmHg 90%
    02:00 +13°C° 0 mm 0 mps 745 mmHg 90%
    03:00 +14°C° 0 mm 1 mps 745 mmHg 91%
    04:00 +15°C° 0 mm 1 mps 745 mmHg 91%
    05:00 +15°C° 0 mm 1 mps 746 mmHg 91%
    06:00 +17°C° 0 mm 2 mps 746 mmHg 86%
    07:00 +19°C° 0 mm 2 mps 746 mmHg 80%
    08:00 +20°C° 0 mm 2 mps 746 mmHg 75%
    09:00 +22°C° 0 mm 3 mps 746 mmHg 71%
    10:00 +24°C° 0 mm 3 mps 746 mmHg 67%
    11:00 +25°C° 0 mm 3 mps 747 mmHg 64%
    12:00 +25°C° 0 mm 4 mps 746 mmHg 63%
    13:00 +26°C° 0 mm 4 mps 746 mmHg 63%
    14:00 +26°C° 0 mm 4 mps 746 mmHg 62%
    15:00 +26°C° 0.1 mm 4 mps 746 mmHg 65%
    16:00 +26°C° 0.1 mm 4 mps 745 mmHg 68%
    17:00 +26°C° 0.1 mm 4 mps 745 mmHg 71%
    18:00 +25°C° 0 mm 4 mps 745 mmHg 77%
    19:00 +22°C° 0 mm 3 mps 745 mmHg 82%
    20:00 +21°C° 0 mm 3 mps 745 mmHg 87%
    21:00 +20°C° 0 mm 3 mps 745 mmHg 89%
    22:00 +19°C° 0 mm 3 mps 745 mmHg 91%
    23:00 +18°C° 0 mm 2 mps 745 mmHg 93%

    Tomorrow, 8 June, Monday

    Time Temperature Precipitation Wind Pressure Humidity
    00:00 +18°C° 0 mm 2 mps 745 mmHg 94%
    01:00 +17°C° 0 mm 3 mps 745 mmHg 95%
    02:00 +17°C° 0 mm 3 mps 745 mmHg 96%
    03:00 +17°C° 0 mm 3 mps 745 mmHg 95%
    04:00 +17°C° 0 mm 3 mps 745 mmHg 95%
    05:00 +17°C° 0 mm 3 mps 745 mmHg 95%
    06:00 +19°C° 0 mm 3 mps 745 mmHg 89%
    07:00 +21°C° 0 mm 3 mps 745 mmHg 84%
    08:00 +22°C° 0 mm 4 mps 745 mmHg 79%
    09:00 +25°C° 0 mm 4 mps 745 mmHg 73%
    10:00 +26°C° 0 mm 4 mps 746 mmHg 66%
    11:00 +28°C° 0 mm 4 mps 746 mmHg 60%
    12:00 +28°C° 0 mm 4 mps 746 mmHg 58%
    13:00 +29°C° 0 mm 4 mps 745 mmHg 56%
    14:00 +29°C° 0 mm 4 mps 745 mmHg 54%
    15:00 +29°C° 0 mm 4 mps 745 mmHg 57%
    16:00 +28°C° 0 mm 3 mps 745 mmHg 60%
    17:00 +28°C° 0 mm 3 mps 745 mmHg 63%
    18:00 +26°C° 0 mm 3 mps 745 mmHg 69%
    19:00 +24°C° 0 mm 3 mps 745 mmHg 76%
    20:00 +23°C° 0 mm 2 mps 745 mmHg 82%
    21:00 +21°C° 0.1 mm 2 mps 745 mmHg 86%
    22:00 +20°C° 0.1 mm 2 mps 745 mmHg 89%
    23:00 +19°C° 0.1 mm 2 mps 745 mmHg 92%

    Day after tomorrow, 9 June, Tuesday

    Time Temperature Precipitation Wind Pressure Humidity
    00:00 +19°C° 0 mm 2 mps 745 mmHg 93%
    01:00 +18°C° 0 mm 2 mps 745 mmHg 94%
    02:00 +18°C° 0 mm 2 mps 745 mmHg 95%
    03:00 +18°C° 0 mm 2 mps 745 mmHg 95%
    04:00 +18°C° 0 mm 2 mps 745 mmHg 95%
    05:00 +18°C° 0 mm 2 mps 745 mmHg 95%
    06:00 +20°C° 0 mm 2 mps 745 mmHg 90%
    07:00 +22°C° 0 mm 3 mps 746 mmHg 85%
    08:00 +24°C° 0 mm 3 mps 746 mmHg 79%
    09:00 +26°C° 0 mm 3 mps 746 mmHg 72%
    10:00 +27°C° 0 mm 4 mps 746 mmHg 65%
    11:00 +28°C° 0 mm 4 mps 746 mmHg 58%
    12:00 +29°C° 0 mm 4 mps 746 mmHg 57%
    13:00 +29°C° 0 mm 4 mps 746 mmHg 55%
    14:00 +30°C° 0 mm 4 mps 745 mmHg 54%
    15:00 +29°C° 0.1 mm 4 mps 745 mmHg 57%
    16:00 +29°C° 0.1 mm 3 mps 745 mmHg 60%
    17:00 +29°C° 0.1 mm 3 mps 745 mmHg 63%
    18:00 +27°C° 0.1 mm 3 mps 745 mmHg 69%
    19:00 +25°C° 0.1 mm 2 mps 745 mmHg 76%
    20:00 +24°C° 0.1 mm 2 mps 745 mmHg 82%
    21:00 +23°C° 0 mm 2 mps 745 mmHg 84%
    22:00 +21°C° 0 mm 2 mps 745 mmHg 86%
    23:00 +20°C° 0 mm 2 mps 746 mmHg 89%

    10 June, Wednesday

    Time Temperature Precipitation Wind Pressure Humidity
    00:00 +20°C° 0 mm 2 mps 745 mmHg 90%
    01:00 +19°C° 0 mm 2 mps 745 mmHg 92%
    02:00 +19°C° 0 mm 2 mps 745 mmHg 93%
    03:00 +19°C° 0 mm 2 mps 745 mmHg 93%
    04:00 +19°C° 0 mm 2 mps 745 mmHg 93%
    05:00 +19°C° 0 mm 2 mps 745 mmHg 93%
    06:00 +21°C° 0 mm 2 mps 746 mmHg 88%
    07:00 +24°C° 0 mm 2 mps 746 mmHg 83%
    08:00 +25°C° 0 mm 3 mps 746 mmHg 77%
    09:00 +27°C° 0 mm 3 mps 746 mmHg 71%
    10:00 +28°C° 0 mm 3 mps 746 mmHg 65%
    11:00 +29°C° 0 mm 4 mps 746 mmHg 59%
    12:00 +30°C° 0 mm 4 mps 745 mmHg 58%
    13:00 +30°C° 0 mm 4 mps 745 mmHg 56%
    14:00 +30°C° 0 mm 4 mps 745 mmHg 55%
    15:00 +30°C° 0.1 mm 4 mps 745 mmHg 59%
    16:00 +29°C° 0.1 mm 3 mps 744 mmHg 62%
    17:00 +29°C° 0.1 mm 3 mps 744 mmHg 66%
    18:00 +27°C° 0.1 mm 3 mps 744 mmHg 71%
    19:00 +26°C° 0.1 mm 2 mps 744 mmHg 77%
    20:00 +24°C° 0.1 mm 2 mps 744 mmHg 83%
    21:00 +23°C° 0 mm 2 mps 744 mmHg 85%
    22:00 +23°C° 0 mm 2 mps 745 mmHg 87%
    23:00 +21°C° 0 mm 2 mps 745 mmHg 89%

    11 June, Thursday

    Time Temperature Precipitation Wind Pressure Humidity
    00:00 +20°C° 0 mm 2 mps 744 mmHg 90%
    01:00 +20°C° 0 mm 2 mps 744 mmHg 91%
    02:00 +19°C° 0 mm 2 mps 744 mmHg 93%
    03:00 +19°C° 0 mm 2 mps 744 mmHg 93%
    04:00 +19°C° 0 mm 2 mps 744 mmHg 93%
    05:00 +20°C° 0 mm 2 mps 744 mmHg 93%
    06:00 +21°C° 0 mm 2 mps 744 mmHg 88%
    07:00 +24°C° 0 mm 3 mps 745 mmHg 82%
    08:00 +26°C° 0 mm 3 mps 745 mmHg 77%
    09:00 +27°C° 0 mm 3 mps 745 mmHg 71%
    10:00 +28°C° 0 mm 4 mps 745 mmHg 65%
    11:00 +29°C° 0 mm 4 mps 744 mmHg 59%
    12:00 +30°C° 0.4 mm 4 mps 744 mmHg 60%
    13:00 +30°C° 0.4 mm 4 mps 744 mmHg 61%
    14:00 +30°C° 0.4 mm 4 mps 744 mmHg 63%
    15:00 +29°C° 0.3 mm 3 mps 743 mmHg 65%
    16:00 +29°C° 0.3 mm 3 mps 743 mmHg 67%
    17:00 +29°C° 0.3 mm 3 mps 743 mmHg 69%
    18:00 +27°C° 0.2 mm 2 mps 743 mmHg 75%
    19:00 +26°C° 0.2 mm 2 mps 743 mmHg 81%
    20:00 +24°C° 0.2 mm 2 mps 743 mmHg 87%
    21:00 +23°C° 0 mm 2 mps 743 mmHg 89%
    22:00 +21°C° 0 mm 2 mps 743 mmHg 91%
    23:00 +21°C° 0 mm 2 mps 743 mmHg 93%

    12 June, Friday

    Time Temperature Precipitation Wind Pressure Humidity
    00:00 +20°C° 0 mm 2 mps 743 mmHg 94%
    01:00 +20°C° 0 mm 2 mps 743 mmHg 94%
    02:00 +19°C° 0 mm 2 mps 743 mmHg 95%
    03:00 +19°C° 0 mm 2 mps 743 mmHg 95%
    04:00 +20°C° 0 mm 2 mps 743 mmHg 94%
    05:00 +20°C° 0 mm 2 mps 743 mmHg 94%
    06:00 +21°C° 0 mm 2 mps 743 mmHg 89%
    07:00 +24°C° 0 mm 2 mps 743 mmHg 84%
    08:00 +25°C° 0 mm 2 mps 744 mmHg 79%
    09:00 +27°C° 0.1 mm 2 mps 743 mmHg 73%
    10:00 +28°C° 0.1 mm 3 mps 743 mmHg 67%
    11:00 +29°C° 0.1 mm 3 mps 743 mmHg 61%
    12:00 +30°C° 0.3 mm 3 mps 743 mmHg 60%
    13:00 +30°C° 0.3 mm 3 mps 743 mmHg 60%
    14:00 +30°C° 0.3 mm 3 mps 742 mmHg 60%
    15:00 +30°C° 0.1 mm 3 mps 742 mmHg 62%
    16:00 +29°C° 0.1 mm 3 mps 742 mmHg 65%
    17:00 +29°C° 0.1 mm 3 mps 742 mmHg 68%
    18:00 +28°C° 0.1 mm 3 mps 742 mmHg 74%
    19:00 +26°C° 0.1 mm 3 mps 742 mmHg 81%
    20:00 +24°C° 0.1 mm 2 mps 742 mmHg 88%
    21:00 +24°C° 0 mm 2 mps 742 mmHg 90%
    22:00 +23°C° 0 mm 2 mps 742 mmHg 92%
    23:00 +21°C° 0 mm 2 mps 742 mmHg 95%
    Show more